Starlink 32258

operational
NORAD ID: 60939 Int'l Des: 2024-155 Owner: SPXS Country: US Constellation: starlink
LEOCIRCULAR

Starlink 32258について

説明を読み込み中...

リアルタイム位置

3D地球を読み込み中...

次回通過

高度履歴

Altitude vs Time

uPlot chart will show altitude changes over time

軌道要素

1 60939U 24155R 26036.90108692 -.00000158 00000-0 67813-5 0 9991
2 60939 53.1562 277.3430 0000637 60.3401 299.7663 15.30189583 81427
Epoch: Feb 5, 2026 • Age: 26 hours

現在のステータス

高度 475.8 km
速度 7.63 km/s
衛星直下点 21.58°N, 52.46°W
打ち上げ日 Aug 31, 2024
運用期間 1.4 years
タイプ internet

技術仕様

分類 Payload
質量 730.00 kg
乾燥質量 700.00 kg
総質量 730.00 kg
長さ 0.30 m
直径 4.10 m
スパン 29.00 m
形状 Box + pan
製造者 SPXS
バスタイプ Starlink V2M
フェーズステータス In Orbit
所有者/国 SPXS/US

大規模コンステレーション

Loading constellations...